User: anonymous   Login
Location: Unspecified
(0.0000°N, 0.0000°E)
Time: 21:03:23
(UTC+00:00)
Language:

ISS - Orbit

View from above orbital plane
View from above orbital plane
View from above satellite
View from above satellite

Ground track
Ground track

The orbit data is extracted from the following two-line orbital elements,

1 25544U 98067A   22333.52847407  .00014988  00000-0  26675-3 0  9999
2 25544  51.6440 237.4939 0007115 127.5001  63.4890 15.50338107370822
Epoch (UTC): 29 November 2022 12:41:00
Eccentricity: 0.0007115
inclination: 51.6440°
perigee height: 411 km
apogee height: 420 km
right ascension of ascending node: 237.4939°
argument of perigee: 127.5001°
revolutions per day: 15.50338107
mean anomaly at epoch: 63.4890°
orbit number at epoch: 37082

The dashed part of the orbit path shows where the satellite is in the earth's shadow,  

DLR